Hourly Data Report for September 06, 2004

SHERBROOKE A
QUEBEC

45°26'00.000" N
71°41'00.000" W
241.40 m
7028124
71610
YSC

Download Data

Hourly Data (September 2004)
Hourly Data Report for September 6, 2004
TIME
LST
Temp Definition
°C
Dew Point Definition
°C
Rel Hum Definition
%
Precip. Amount Definition
mm

Wind Dir Definition
10's deg

Wind Spd Definition
km/h
Visibility Definition
km
Stn Press Definition
kPa
Hmdx Definition


Wind Chill Definition


Weather Definition


00:00 10.9 9.5 91   12 7 15.0 99.83      
01:00 10.3 9.3 94   12 7 15.0 99.78      
02:00 10.3 9.3 94   14 7 15.0 99.75      
03:00 10.4 9.6 95   12 4 15.0 99.78      
04:00 12.0 10.8 92   12 7 15.0 99.79      
05:00 12.2 10.9 92   11 6 15.0 99.81      
06:00 12.8 11.3 91   13 7 15.0 99.80      
07:00 14.1 12.3 89   12 4 24.1 99.81     Cloudy
08:00 15.7 12.3 80   17 9 24.1 99.78     Mostly Cloudy
09:00 16.9 12.6 76   19 9 24.1 99.76     Mostly Cloudy
10:00 19.2 13.8 71   23 11 24.1 99.68     Mostly Cloudy
11:00 20.6 14.2 67   18 13 24.1 99.57     Mostly Cloudy
12:00 20.9 13.8 64   19 7 24.1 99.52     Mostly Cloudy
13:00 21.5 14.3 64   20 11 24.1 99.47 25   Mostly Cloudy
14:00 22.2 14.8 63   19 9 24.1 99.39 26   Mostly Cloudy
15:00 20.9 15.0 69   19 11 24.1 99.35 25   Mostly Cloudy
16:00 21.7 14.6 64   22 11 24.1 99.31 25   Mostly Cloudy
17:00 20.9 14.8 68   16 11 15.0 99.28 25    
18:00 18.3 14.3 77   15 7 15.0 99.24      
19:00 16.9 13.7 81   15 9 15.0 99.25      
20:00 15.6 13.2 86   13 7 15.0 99.21      
21:00 14.1 12.7 91   11 6 15.0 99.17      
22:00 13.6 12.2 91     0 15.0 99.14      
23:00 12.2 11.4 95   11 4 15.0 99.13      

Notes on Data Quality.

Legend

  • E = Estimated
  • M = Missing
  • NA = Not Available*
  • [empty] = Indicates an unobserved value
Date modified: